Time,TemperatureF,DewpointF,PressureIn,WindDirection,WindDirectionDegrees,WindSpeedMPH,WindSpeedGustMPH,Humidity,HourlyPrecipIn,Conditions,Clouds,dailyrainin,SoftwareType,DateUTC
2013-02-06 00:02:00,47.0,32.0,29.93,SSW,198,0.0,2.0,56,0.00,,,0.00,,2013-02-06 05:02:00,
2013-02-06 00:22:00,48.0,33.0,29.95,SSE,162,1.0,5.0,56,0.00,,,0.00,,2013-02-06 05:22:00,
2013-02-06 00:32:00,48.0,34.0,29.95,South,190,2.0,5.0,57,0.00,,,0.00,,2013-02-06 05:32:00,
2013-02-06 00:53:00,47.0,33.0,29.95,WSW,249,0.0,4.0,58,0.00,,,0.00,,2013-02-06 05:53:00,
2013-02-06 01:22:00,43.0,32.0,29.94,West,259,0.0,1.0,66,0.00,,,0.00,,2013-02-06 06:22:00,
2013-02-06 01:32:00,43.0,33.0,29.94,NW,311,0.0,2.0,67,0.00,,,0.00,,2013-02-06 06:32:00,
2013-02-06 01:42:00,43.0,33.0,29.94,NW,311,0.0,2.0,67,0.00,,,0.00,,2013-02-06 06:42:00,
2013-02-06 01:52:00,45.0,34.0,29.93,NW,306,0.0,2.0,64,0.00,,,0.00,,2013-02-06 06:52:00,
2013-02-06 02:01:00,44.0,34.0,29.93,NW,306,0.0,2.0,67,0.00,,,0.00,,2013-02-06 07:01:00,
2013-02-06 02:11:00,44.0,34.0,29.93,NW,306,0.0,2.0,67,0.00,,,0.00,,2013-02-06 07:11:00,
2013-02-06 02:22:00,39.0,30.0,29.94,NW,306,0.0,1.0,71,0.00,,,0.00,,2013-02-06 07:22:00,
2013-02-06 02:32:00,38.0,31.0,29.94,NW,306,0.0,1.0,77,0.00,,,0.00,,2013-02-06 07:32:00,
2013-02-06 02:42:00,38.0,31.0,29.94,NW,306,0.0,1.0,77,0.00,,,0.00,,2013-02-06 07:42:00,
2013-02-06 02:52:00,38.0,32.0,29.94,NW,306,0.0,0.0,78,0.00,,,0.00,,2013-02-06 07:52:00,
2013-02-06 03:01:00,38.0,32.0,29.95,NW,306,0.0,0.0,78,0.00,,,0.00,,2013-02-06 08:01:00,
2013-02-06 03:11:00,38.0,32.0,29.95,NW,306,0.0,0.0,78,0.00,,,0.00,,2013-02-06 08:11:00,
2013-02-06 03:21:00,39.0,32.0,29.95,NW,306,0.0,3.0,76,0.00,,,0.00,,2013-02-06 08:21:00,
2013-02-06 03:31:00,39.0,32.0,29.95,NW,306,0.0,0.0,76,0.00,,,0.00,,2013-02-06 08:31:00,
2013-02-06 03:42:00,39.0,32.0,29.95,NW,306,0.0,0.0,76,0.00,,,0.00,,2013-02-06 08:42:00,
2013-02-06 03:53:00,39.0,32.0,29.95,NW,306,0.0,0.0,76,0.00,,,0.00,,2013-02-06 08:53:00,
2013-02-06 04:01:00,39.0,32.0,29.95,NW,306,0.0,0.0,76,0.00,,,0.00,,2013-02-06 09:01:00,
2013-02-06 04:11:00,39.0,32.0,29.95,NW,306,0.0,0.0,76,0.00,,,0.00,,2013-02-06 09:11:00,
2013-02-06 04:21:00,39.0,32.0,29.95,NW,306,0.0,0.0,76,0.00,,,0.00,,2013-02-06 09:21:00,
2013-02-06 06:53:00,35.0,31.0,30.02,NW,306,0.0,0.0,84,0.00,,,0.00,,2013-02-06 11:53:00,
2013-02-06 07:02:00,36.0,31.0,30.03,NW,306,0.0,0.0,83,0.00,,,0.00,,2013-02-06 12:02:00,
2013-02-06 07:12:00,36.0,31.0,30.03,NW,306,0.0,0.0,83,0.00,,,0.00,,2013-02-06 12:12:00,
2013-02-06 07:22:00,35.0,31.0,30.03,NW,306,0.0,0.0,85,0.00,,,0.00,,2013-02-06 12:22:00,
2013-02-06 07:32:00,33.0,29.0,30.05,NW,306,0.0,0.0,85,0.00,,,0.00,,2013-02-06 12:32:00,
2013-02-06 07:42:00,33.0,29.0,30.05,NW,306,0.0,0.0,85,0.00,,,0.00,,2013-02-06 12:42:00,
2013-02-06 07:52:00,32.0,29.0,30.07,NW,306,0.0,2.0,89,0.00,,,0.00,,2013-02-06 12:52:00,
2013-02-06 08:01:00,34.0,31.0,30.06,NW,306,0.0,3.0,88,0.00,,,0.00,,2013-02-06 13:01:00,
2013-02-06 08:12:00,34.0,31.0,30.06,NW,306,0.0,3.0,88,0.00,,,0.00,,2013-02-06 13:12:00,
2013-02-06 08:22:00,36.0,32.0,30.06,NW,306,1.0,2.0,84,0.00,,,0.00,,2013-02-06 13:22:00,
2013-02-06 08:32:00,36.0,31.0,30.06,NW,306,0.0,1.0,81,0.00,,,0.00,,2013-02-06 13:32:00,
2013-02-06 08:42:00,36.0,31.0,30.06,NW,306,0.0,1.0,81,0.00,,,0.00,,2013-02-06 13:42:00,
2013-02-06 08:52:00,36.0,30.0,30.07,NW,306,0.0,1.0,80,0.00,,,0.00,,2013-02-06 13:52:00,
2013-02-06 09:02:00,36.0,31.0,30.07,NW,306,0.0,1.0,81,0.00,,,0.00,,2013-02-06 14:02:00,
2013-02-06 09:11:00,36.0,31.0,30.07,NW,306,0.0,1.0,81,0.00,,,0.00,,2013-02-06 14:11:00,
2013-02-06 09:22:00,40.0,32.0,30.06,NW,306,0.0,1.0,72,0.00,,,0.00,,2013-02-06 14:22:00,
2013-02-06 09:32:00,41.0,32.0,30.08,NW,306,0.0,1.0,69,0.00,,,0.00,,2013-02-06 14:32:00,
2013-02-06 09:42:00,41.0,32.0,30.08,NW,306,0.0,1.0,69,0.00,,,0.00,,2013-02-06 14:42:00,
2013-02-06 09:52:00,43.0,33.0,30.10,NW,306,0.0,1.0,68,0.00,,,0.00,,2013-02-06 14:52:00,
2013-02-06 10:02:00,43.0,31.0,30.10,ENE,58,1.0,2.0,63,0.00,,,0.00,,2013-02-06 15:02:00,
2013-02-06 10:11:00,45.0,32.0,30.10,ESE,121,0.0,3.0,59,0.00,,,0.00,,2013-02-06 15:11:00,
2013-02-06 10:21:00,45.0,32.0,30.10,ESE,121,0.0,3.0,59,0.00,,,0.00,,2013-02-06 15:21:00,
2013-02-06 10:32:00,46.0,31.0,30.11,East,93,0.0,2.0,56,0.00,,,0.00,,2013-02-06 15:32:00,
2013-02-06 10:42:00,46.0,31.0,30.11,East,93,0.0,2.0,56,0.00,,,0.00,,2013-02-06 15:42:00,
2013-02-06 10:52:00,47.0,31.0,30.11,ESE,113,1.0,4.0,53,0.00,,,0.00,,2013-02-06 15:52:00,
2013-02-06 11:01:00,48.0,31.0,30.11,SSE,157,0.0,4.0,51,0.00,,,0.00,,2013-02-06 16:01:00,
2013-02-06 11:11:00,48.0,31.0,30.11,SSE,157,0.0,4.0,51,0.00,,,0.00,,2013-02-06 16:11:00,
2013-02-06 11:21:00,48.0,31.0,30.11,South,189,3.0,5.0,51,0.00,,,0.00,,2013-02-06 16:21:00,
2013-02-06 11:32:00,48.0,29.0,30.11,SSW,196,1.0,5.0,48,0.00,,,0.00,,2013-02-06 16:32:00,
2013-02-06 11:42:00,48.0,29.0,30.11,SSW,196,1.0,5.0,48,0.00,,,0.00,,2013-02-06 16:42:00,
2013-02-06 11:52:00,50.0,27.0,30.10,ESE,122,1.0,5.0,41,0.00,,,0.00,,2013-02-06 16:52:00,
2013-02-06 12:02:00,50.0,28.0,30.10,East,98,2.0,4.0,43,0.00,,,0.00,,2013-02-06 17:02:00,
2013-02-06 12:11:00,50.0,28.0,30.10,East,98,2.0,4.0,43,0.00,,,0.00,,2013-02-06 17:11:00,
2013-02-06 12:22:00,52.0,28.0,30.12,ESE,103,1.0,4.0,40,0.00,,,0.00,,2013-02-06 17:22:00,
2013-02-06 12:32:00,53.0,28.0,30.09,SE,128,2.0,5.0,38,0.00,,,0.00,,2013-02-06 17:32:00,
2013-02-06 12:42:00,54.0,28.0,30.09,SSW,194,2.0,5.0,37,0.00,,,0.00,,2013-02-06 17:42:00,
2013-02-06 12:52:00,54.0,28.0,30.09,SSW,194,2.0,5.0,37,0.00,,,0.00,,2013-02-06 17:52:00,
2013-02-06 13:01:00,54.0,26.0,30.08,SSE,167,1.0,6.0,34,0.00,,,0.00,,2013-02-06 18:01:00,
2013-02-06 13:11:00,56.0,27.0,30.07,South,184,1.0,5.0,33,0.00,,,0.00,,2013-02-06 18:11:00,
2013-02-06 13:23:00,56.0,27.0,30.07,South,184,1.0,5.0,33,0.00,,,0.00,,2013-02-06 18:23:00,
2013-02-06 13:32:00,57.0,26.0,30.07,SSW,211,4.0,7.0,30,0.00,,,0.00,,2013-02-06 18:32:00,
2013-02-06 13:42:00,57.0,26.0,30.07,SSW,211,4.0,7.0,30,0.00,,,0.00,,2013-02-06 18:42:00,
2013-02-06 13:52:00,58.0,25.0,30.06,SE,139,2.0,6.0,28,0.00,,,0.00,,2013-02-06 18:52:00,
2013-02-06 14:01:00,58.0,25.0,30.06,SSE,155,3.0,7.0,28,0.00,,,0.00,,2013-02-06 19:01:00,
2013-02-06 14:11:00,58.0,25.0,30.06,SSE,155,3.0,7.0,28,0.00,,,0.00,,2013-02-06 19:11:00,
2013-02-06 14:21:00,58.0,23.0,30.06,South,185,1.0,4.0,26,0.00,,,0.00,,2013-02-06 19:21:00,
2013-02-06 14:32:00,59.0,19.0,30.05,West,278,3.0,9.0,21,0.00,,,0.00,,2013-02-06 19:32:00,
2013-02-06 14:42:00,59.0,19.0,30.05,West,278,3.0,9.0,21,0.00,,,0.00,,2013-02-06 19:42:00,
2013-02-06 14:52:00,59.0,20.0,30.05,SE,137,2.0,6.0,22,0.00,,,0.00,,2013-02-06 19:52:00,
2013-02-06 15:01:00,61.0,21.0,30.04,SSE,154,1.0,7.0,21,0.00,,,0.00,,2013-02-06 20:01:00,
2013-02-06 15:11:00,60.0,20.0,30.04,SSW,197,1.0,5.0,21,0.00,,,0.00,,2013-02-06 20:11:00,
2013-02-06 15:21:00,60.0,20.0,30.04,SSW,197,1.0,5.0,21,0.00,,,0.00,,2013-02-06 20:21:00,
2013-02-06 15:32:00,59.0,19.0,30.04,SSW,199,0.0,5.0,21,0.00,,,0.00,,2013-02-06 20:32:00,
2013-02-06 15:42:00,59.0,19.0,30.04,SSW,199,0.0,5.0,21,0.00,,,0.00,,2013-02-06 20:42:00,
2013-02-06 15:52:00,60.0,21.0,30.05,SE,146,2.0,4.0,22,0.00,,,0.00,,2013-02-06 20:52:00,
2013-02-06 16:02:00,60.0,20.0,30.05,SW,217,1.0,7.0,21,0.00,,,0.00,,2013-02-06 21:02:00,
2013-02-06 16:11:00,60.0,20.0,30.05,SW,217,1.0,7.0,21,0.00,,,0.00,,2013-02-06 21:11:00,
2013-02-06 16:21:00,59.0,19.0,30.05,South,178,4.0,6.0,21,0.00,,,0.00,,2013-02-06 21:21:00,
2013-02-06 16:32:00,59.0,19.0,30.05,South,176,1.0,5.0,21,0.00,,,0.00,,2013-02-06 21:32:00,
2013-02-06 16:42:00,59.0,19.0,30.05,South,176,1.0,5.0,21,0.00,,,0.00,,2013-02-06 21:42:00,
2013-02-06 16:52:00,59.0,20.0,30.06,South,180,0.0,4.0,22,0.00,,,0.00,,2013-02-06 21:52:00,
2013-02-06 17:01:00,57.0,24.0,30.06,SE,128,0.0,4.0,28,0.00,,,0.00,,2013-02-06 22:01:00,
2013-02-06 17:11:00,57.0,24.0,30.06,SE,128,0.0,4.0,28,0.00,,,0.00,,2013-02-06 22:11:00,
2013-02-06 17:22:00,57.0,25.0,30.07,SE,142,0.0,4.0,29,0.00,,,0.00,,2013-02-06 22:22:00,
2013-02-06 17:32:00,56.0,26.0,30.08,NE,53,0.0,2.0,31,0.00,,,0.00,,2013-02-06 22:32:00,
2013-02-06 17:42:00,56.0,26.0,30.08,NE,53,0.0,2.0,31,0.00,,,0.00,,2013-02-06 22:42:00,
2013-02-06 17:52:00,55.0,24.0,30.08,NE,53,0.0,1.0,30,0.00,,,0.00,,2013-02-06 22:52:00,
2013-02-06 18:01:00,54.0,23.0,30.06,NNE,32,1.0,3.0,30,0.00,,,0.00,,2013-02-06 23:01:00,
2013-02-06 18:11:00,54.0,23.0,30.06,NNE,32,1.0,3.0,30,0.00,,,0.00,,2013-02-06 23:11:00,
2013-02-06 18:21:00,54.0,22.0,30.06,NE,47,0.0,4.0,29,0.00,,,0.00,,2013-02-06 23:21:00,
2013-02-06 18:32:00,53.0,22.0,30.08,NE,47,0.0,1.0,30,0.00,,,0.00,,2013-02-06 23:32:00,
2013-02-06 18:42:00,53.0,22.0,30.08,NE,47,0.0,1.0,30,0.00,,,0.00,,2013-02-06 23:42:00,
2013-02-06 18:52:00,52.0,22.0,30.09,NE,47,0.0,0.0,31,0.00,,,0.00,,2013-02-06 23:52:00,
2013-02-06 19:01:00,51.0,22.0,30.09,NE,47,0.0,2.0,32,0.00,,,0.00,,2013-02-07 00:01:00,
2013-02-06 19:11:00,51.0,22.0,30.09,NE,47,0.0,2.0,32,0.00,,,0.00,,2013-02-07 00:11:00,
2013-02-06 19:21:00,51.0,21.0,30.09,NE,47,0.0,1.0,31,0.00,,,0.00,,2013-02-07 00:21:00,
2013-02-06 19:32:00,50.0,21.0,30.09,NE,47,0.0,1.0,32,0.00,,,0.00,,2013-02-07 00:32:00,
2013-02-06 19:42:00,50.0,21.0,30.09,NE,47,0.0,1.0,32,0.00,,,0.00,,2013-02-07 00:42:00,
2013-02-06 19:52:00,50.0,22.0,30.09,NE,47,0.0,2.0,33,0.00,,,0.00,,2013-02-07 00:52:00,
2013-02-06 20:01:00,49.0,20.0,30.10,NE,47,0.0,1.0,32,0.00,,,0.00,,2013-02-07 01:01:00,
2013-02-06 20:11:00,49.0,20.0,30.10,NE,47,0.0,1.0,32,0.00,,,0.00,,2013-02-07 01:11:00,
2013-02-06 20:21:00,49.0,22.0,30.10,NE,47,0.0,1.0,34,0.00,,,0.00,,2013-02-07 01:21:00,
2013-02-06 20:32:00,49.0,22.0,30.09,NE,47,0.0,0.0,34,0.00,,,0.00,,2013-02-07 01:32:00,
2013-02-06 20:52:00,48.0,22.0,30.09,NE,47,0.0,0.0,35,0.00,,,0.00,,2013-02-07 01:52:00,
2013-02-06 21:01:00,47.0,21.0,30.11,NE,47,0.0,1.0,36,0.00,,,0.00,,2013-02-07 02:01:00,
2013-02-06 21:11:00,47.0,21.0,30.11,NE,47,0.0,1.0,36,0.00,,,0.00,,2013-02-07 02:11:00,
2013-02-06 21:21:00,47.0,22.0,30.12,NE,47,0.0,0.0,37,0.00,,,0.00,,2013-02-07 02:21:00,
2013-02-06 21:32:00,47.0,22.0,30.15,NE,47,0.0,0.0,37,0.00,,,0.00,,2013-02-07 02:32:00,
2013-02-06 21:42:00,47.0,22.0,30.15,NE,47,0.0,0.0,37,0.00,,,0.00,,2013-02-07 02:42:00,
2013-02-06 21:52:00,47.0,22.0,30.15,NE,47,0.0,0.0,37,0.00,,,0.00,,2013-02-07 02:52:00,
2013-02-06 22:02:00,45.0,22.0,30.13,NE,47,0.0,0.0,39,0.00,,,0.00,,2013-02-07 03:02:00,
2013-02-06 22:11:00,45.0,22.0,30.13,NE,47,0.0,0.0,39,0.00,,,0.00,,2013-02-07 03:11:00,
2013-02-06 22:21:00,45.0,22.0,30.13,NE,47,0.0,1.0,39,0.00,,,0.00,,2013-02-07 03:21:00,
2013-02-06 22:32:00,44.0,22.0,30.15,NE,47,0.0,0.0,42,0.00,,,0.00,,2013-02-07 03:32:00,
2013-02-06 22:52:00,43.0,22.0,30.12,NE,47,0.0,0.0,43,0.00,,,0.00,,2013-02-07 03:52:00,
2013-02-06 23:01:00,42.0,24.0,30.12,NE,47,0.0,0.0,48,0.00,,,0.00,,2013-02-07 04:01:00,
2013-02-06 23:11:00,42.0,24.0,30.12,NE,47,0.0,0.0,48,0.00,,,0.00,,2013-02-07 04:11:00,
2013-02-06 23:22:00,42.0,24.0,30.12,NE,47,0.0,0.0,48,0.00,,,0.00,,2013-02-07 04:22:00,
2013-02-06 23:32:00,42.0,23.0,30.14,NE,47,0.0,0.0,47,0.00,,,0.00,,2013-02-07 04:32:00,
2013-02-06 23:53:00,41.0,23.0,30.14,NE,47,0.0,0.0,49,0.00,,,0.00,,2013-02-07 04:53:00,